Location: Buchdorf
(48.7842°N, 10.8275°E)
Time: 01:48:00
(UTC+00:00)

X-37B - Pass Details

Date: 13 March 2021
Orbit: 380 x 394 km, 45.0° (Epoch: 07 April)

Event Time Altitude Azimuth Distance (km) Brightness Sun altitude
Rises 18:55:22 0° 234° (SW) 2,267 5.1 -16.5°
Reaches altitude 10° 18:57:36 10° 222° (SW) 1,417 3.8 -16.9°
Enters shadow 19:00:00 26° 175° (S) 803 1.9 -17.3°
